DW5367 Weather Reports


time (UTC)temp
C
wind
direction
speed
KPH
gust
KPH
rain 1hr
cm
rain 24hr
cm
rain mn
cm
humidity
%
barometer
mb
20260504001523 10 360 0.0 0.0 0.00 0.00 0.00 42 1015.0
20260504000014 11 360 0.0 0.0 0.00 0.00 0.00 41 1015.0
20260503234516 11 360 0.0 0.0 0.00 0.00 0.00 38 1015.1
20260503233018 12 360 0.0 0.0 0.00 0.00 0.00 35 1015.2
20260503231512 12 252 0.0 0.0 0.00 0.00 0.00 32 1015.1
20260503230031 13 251 0.0 0.0 0.00 0.00 0.00 33 1015.0
20260503224512 14 203 0.0 0.0 0.00 0.00 0.00 32 1014.9
20260503223009 14 303 0.0 1.6 0.00 0.00 0.00 32 1014.9
20260503221509 13 285 0.0 4.8 0.00 0.00 0.00 30 1015.0
20260503220008 13 272 1.6 9.7 0.00 0.00 0.00 30 1015.1
20260503214515 14 70 0.0 4.8 0.00 0.00 0.00 30 1015.0
20260503213004 14 259 0.0 4.8 0.00 0.00 0.00 30 1015.0
20260503211501 14 259 0.0 0.0 0.00 0.00 0.00 30 1015.0
20260503210059 13 346 0.0 1.6 0.00 0.00 0.00 30 1015.3
20260503204620 13 340 0.0 3.2 0.00 0.00 0.00 31 1015.2
20260503203104 13 360 0.0 8.0 0.00 0.00 0.00 33 1015.1
20260503201553 13 360 0.0 4.8 0.00 0.00 0.00 33 1015.5
20260503200050 13 360 0.0 4.8 0.00 0.00 0.00 33 1015.6
20260503194547 12 284 0.0 6.4 0.00 0.00 0.00 36 1015.6
20260503193048 12 315 0.0 3.2 0.00 0.00 0.00 36 1015.7
20260503191605 12 360 1.6 17.7 0.00 0.00 0.00 35 1016.2
20260503190040 11 261 0.0 6.4 0.00 0.00 0.00 37 1016.6
20260503184539 11 347 0.0 1.6 0.00 0.00 0.00 41 1016.6
20260503183036 11 272 0.0 1.6 0.00 0.00 0.00 39 1016.7
20260503181546 11 286 0.0 14.5 0.00 0.00 0.00 40 1016.7
20260503180034 10 360 0.0 6.4 0.00 0.00 0.00 44 1016.7
20260503174534 10 360 1.6 9.7 0.00 0.00 0.00 43 1016.7
20260503173028 9 360 0.0 4.8 0.00 0.00 0.00 43 1016.6
20260503171525 8 360 0.0 4.8 0.00 0.00 0.00 46 1016.8
20260503081524 1 360 0.0 1.6 0.00 0.00 0.00 77 1013.9
20260503071507 2 360 0.0 6.4 0.00 0.00 0.00 76 1013.2
20260503054556 2 360 0.0 0.0 0.00 0.00 0.00 77 1013.1
20260503053035 2 360 0.0 0.0 0.00 0.00 0.00 76 1013.2
20260503051542 2 360 0.0 4.8 0.00 0.00 0.00 76 1013.2
20260503050032 3 360 0.0 0.0 0.00 0.00 0.00 75 1013.2
20260503044536 3 360 0.0 1.6 0.00 0.00 0.00 73 1013.2
20260503043030 3 360 0.0 0.0 0.00 0.00 0.00 73 1013.2
20260503041525 3 360 0.0 0.0 0.00 0.00 0.00 73 1013.4
20260503040021 3 360 0.0 0.0 0.00 0.00 0.00 71 1013.3
20260503034520 4 360 0.0 0.0 0.00 0.00 0.00 69 1013.1
20260503033019 4 360 0.0 0.0 0.00 0.00 0.00 68 1013.0
20260503031519 5 360 0.0 0.0 0.00 0.00 0.00 66 1013.0
20260503030018 5 360 0.0 0.0 0.00 0.00 0.00 66 1013.1
20260503024518 5 360 0.0 0.0 0.00 0.00 0.00 63 1013.0
20260503023017 6 360 0.0 0.0 0.00 0.00 0.00 61 1012.9
20260503021522 6 360 0.0 0.0 0.00 0.00 0.00 58 1013.0
20260503020017 6 360 0.0 0.0 0.00 0.00 0.00 57 1013.1
20260503014516 6 360 0.0 0.0 0.00 0.00 0.00 56 1013.1
20260503013029 6 360 0.0 0.0 0.00 0.00 0.00 57 1013.0
20260503011514 6 360 0.0 0.0 0.00 0.00 0.00 54 1012.8
20260503010013 6 360 0.0 0.0 0.00 0.00 0.00 55 1012.7
20260503004513 6 360 0.0 1.6 0.00 0.00 0.00 54 1012.4
20260503003013 6 360 0.0 0.0 0.00 0.00 0.00 55 1012.2